VLG9EU LEMH-LEBL

Flight info

Callsign VLG9EU
Flight time 0h 32m
Altitude 16000
Route LUNIK Q255 OSTUR
Aircraft A320/M-SDFGHILORVWXY/LB1

Departure

Time 2026-05-06 15:55
Airport Menorca Airport (LEMH)

Arrival

Time 2026-05-06 16:28
Airport Josep Tarradellas Barcelona-El Prat Airport (LEBL)
Time Latitude Longitude Altitude Speed Heading
2026-05-06 15:29 39.86575 4.22427 287 ft 0 kts 99°
2026-05-06 15:46 39.86577 4.22416 287 ft 4 kts 101°
2026-05-06 15:46 39.86584 4.22383 296 ft 4 kts 115°
2026-05-06 15:46 39.86598 4.22355 294 ft 4 kts 147°
2026-05-06 15:46 39.86615 4.22348 294 ft 1 kts 189°
2026-05-06 15:47 39.86619 4.22348 294 ft 0 kts 189°
2026-05-06 15:48 39.86618 4.22348 294 ft 1 kts 189°
2026-05-06 15:49 39.86585 4.22340 295 ft 9 kts 191°
2026-05-06 15:49 39.86508 4.22325 288 ft 12 kts 187°
2026-05-06 15:49 39.86429 4.22311 288 ft 11 kts 188°
2026-05-06 15:49 39.86354 4.22294 288 ft 11 kts 189°
2026-05-06 15:50 39.86283 4.22278 291 ft 10 kts 189°
2026-05-06 15:50 39.86214 4.22264 288 ft 10 kts 189°
2026-05-06 15:50 39.86184 4.22209 291 ft 6 kts 266°
2026-05-06 15:50 39.86189 4.22169 291 ft 3 kts 279°
2026-05-06 15:51 39.86190 4.22127 293 ft 7 kts 263°
2026-05-06 15:51 39.86135 4.22080 297 ft 14 kts 188°
2026-05-06 15:51 39.86022 4.22054 297 ft 16 kts 189°
2026-05-06 15:51 39.85920 4.22034 296 ft 14 kts 188°
2026-05-06 15:52 39.85822 4.22015 294 ft 15 kts 188°
2026-05-06 15:52 39.85719 4.21992 293 ft 15 kts 188°
2026-05-06 15:52 39.85611 4.21972 288 ft 16 kts 188°
2026-05-06 15:52 39.85500 4.21947 289 ft 16 kts 193°
2026-05-06 15:53 39.85387 4.21927 283 ft 16 kts 189°
2026-05-06 15:53 39.85277 4.21903 281 ft 16 kts 189°
2026-05-06 15:53 39.85172 4.21881 281 ft 14 kts 190°
2026-05-06 15:53 39.85131 4.21802 283 ft 10 kts 264°
2026-05-06 15:54 39.85133 4.21726 284 ft 7 kts 274°
2026-05-06 15:54 39.85166 4.21652 286 ft 12 kts 337°
2026-05-06 15:54 39.85240 4.21656 288 ft 15 kts 10°
2026-05-06 15:54 39.85531 4.21714 291 ft 78 kts
2026-05-06 15:55 39.86282 4.21872 303 ft 138 kts
2026-05-06 15:55 39.87328 4.22112 726 ft 151 kts 13°
2026-05-06 15:55 39.88343 4.22349 1464 ft 150 kts 13°
2026-05-06 15:55 39.89383 4.22621 2020 ft 162 kts 12°
2026-05-06 15:56 39.90569 4.22892 2456 ft 182 kts 10°
2026-05-06 15:56 39.91860 4.23241 2984 ft 196 kts 16°
2026-05-06 15:56 39.93164 4.23902 3532 ft 208 kts 24°
2026-05-06 15:56 39.94634 4.24411 3902 ft 233 kts 357°
2026-05-06 15:57 39.96209 4.23699 4354 ft 254 kts 323°
2026-05-06 15:57 39.97532 4.22104 5146 ft 263 kts 309°
2026-05-06 15:57 39.98634 4.20189 6114 ft 266 kts 301°
2026-05-06 15:57 39.99539 4.18076 7080 ft 268 kts 294°
2026-05-06 15:58 40.00147 4.15782 8032 ft 269 kts 277°
2026-05-06 15:58 40.00018 4.13356 8945 ft 272 kts 253°
2026-05-06 15:58 39.99224 4.11119 9918 ft 274 kts 240°
2026-05-06 15:58 39.98394 4.08839 10528 ft 289 kts 251°
2026-05-06 15:59 39.98039 4.06167 10915 ft 310 kts 268°
2026-05-06 15:59 39.98336 4.03351 11638 ft 319 kts 284°
2026-05-06 15:59 39.99247 4.00686 12471 ft 326 kts 299°
2026-05-06 15:59 40.00694 3.98372 13333 ft 333 kts 310°
2026-05-06 16:00 40.02309 3.96180 14121 ft 336 kts 310°
2026-05-06 16:00 40.03940 3.93970 14841 ft 340 kts 310°
2026-05-06 16:00 40.05585 3.91743 15558 ft 343 kts 310°
2026-05-06 16:00 40.07251 3.89491 15852 ft 345 kts 310°
2026-05-06 16:01 40.08918 3.87239 15934 ft 345 kts 310°
2026-05-06 16:01 40.10584 3.84988 15944 ft 344 kts 309°
2026-05-06 16:01 40.12242 3.82736 15945 ft 344 kts 309°
2026-05-06 16:01 40.13899 3.80478 15950 ft 344 kts 309°
2026-05-06 16:02 40.15553 3.78224 15947 ft 343 kts 309°
2026-05-06 16:02 40.17205 3.75971 15949 ft 343 kts 309°
2026-05-06 16:02 40.18834 3.73747 15947 ft 343 kts 309°
2026-05-06 16:02 40.20486 3.71490 15953 ft 343 kts 309°
2026-05-06 16:03 40.22138 3.69234 15945 ft 343 kts 309°
2026-05-06 16:03 40.23790 3.66975 15945 ft 344 kts 309°
2026-05-06 16:03 40.25442 3.64714 15945 ft 344 kts 309°
2026-05-06 16:03 40.27093 3.62455 15945 ft 344 kts 309°
2026-05-06 16:04 40.28747 3.60194 15948 ft 344 kts 309°
2026-05-06 16:04 40.30398 3.57933 15948 ft 343 kts 309°
2026-05-06 16:04 40.32048 3.55668 15948 ft 343 kts 309°
2026-05-06 16:04 40.33696 3.53405 15948 ft 343 kts 309°
2026-05-06 16:05 40.35344 3.51140 15948 ft 343 kts 309°
2026-05-06 16:05 40.36991 3.48874 15945 ft 343 kts 309°
2026-05-06 16:05 40.38640 3.46606 15945 ft 343 kts 309°
2026-05-06 16:05 40.40285 3.44337 15945 ft 343 kts 309°
2026-05-06 16:06 40.41930 3.42065 15948 ft 343 kts 309°
2026-05-06 16:06 40.43574 3.39794 15953 ft 343 kts 309°
2026-05-06 16:06 40.45206 3.37514 15947 ft 342 kts 308°
2026-05-06 16:06 40.46813 3.35210 15944 ft 342 kts 308°
2026-05-06 16:07 40.48407 3.32888 15947 ft 342 kts 307°
2026-05-06 16:07 40.49993 3.30562 15944 ft 342 kts 307°
2026-05-06 16:07 40.51582 3.28233 15945 ft 342 kts 307°
2026-05-06 16:07 40.53171 3.25907 15946 ft 342 kts 308°
2026-05-06 16:08 40.54761 3.23581 15944 ft 342 kts 308°
2026-05-06 16:08 40.56355 3.21254 15944 ft 342 kts 308°
2026-05-06 16:08 40.57947 3.18931 15945 ft 342 kts 308°
2026-05-06 16:08 40.59541 3.16604 15944 ft 342 kts 308°
2026-05-06 16:09 40.61136 3.14279 15945 ft 342 kts 308°
2026-05-06 16:09 40.62733 3.11952 15944 ft 342 kts 308°
2026-05-06 16:09 40.64325 3.09626 15944 ft 342 kts 308°
2026-05-06 16:09 40.65912 3.07296 15944 ft 342 kts 307°
2026-05-06 16:10 40.67502 3.04963 15946 ft 342 kts 308°
2026-05-06 16:10 40.69090 3.02635 15946 ft 342 kts 308°
2026-05-06 16:10 40.70679 3.00305 15941 ft 342 kts 308°
2026-05-06 16:10 40.72266 2.97976 15941 ft 342 kts 308°
2026-05-06 16:11 40.73852 2.95644 15913 ft 340 kts 308°
2026-05-06 16:11 40.75409 2.93356 15654 ft 331 kts 308°
2026-05-06 16:11 40.76945 2.91136 15404 ft 325 kts 311°
2026-05-06 16:11 40.78718 2.89314 15152 ft 323 kts 325°
2026-05-06 16:12 40.80759 2.88090 14858 ft 323 kts 335°
2026-05-06 16:12 40.82865 2.87077 14462 ft 322 kts 336°
2026-05-06 16:12 40.84966 2.86067 14062 ft 321 kts 336°
2026-05-06 16:12 40.87064 2.85056 13637 ft 321 kts 336°
2026-05-06 16:13 40.89154 2.84042 13197 ft 319 kts 337°
2026-05-06 16:13 40.91232 2.83032 12777 ft 317 kts 337°
2026-05-06 16:13 40.93281 2.82031 12367 ft 308 kts 337°
2026-05-06 16:13 40.95254 2.81072 11987 ft 299 kts 337°
2026-05-06 16:14 40.97199 2.80126 11588 ft 298 kts 337°
2026-05-06 16:14 40.99141 2.79181 11194 ft 297 kts 337°
2026-05-06 16:14 41.01074 2.78235 10794 ft 296 kts 337°
2026-05-06 16:14 41.03002 2.77291 10392 ft 295 kts 337°
2026-05-06 16:15 41.04900 2.76361 9988 ft 294 kts 337°
2026-05-06 16:15 41.06807 2.75426 9647 ft 287 kts 337°
2026-05-06 16:15 41.08658 2.74523 9438 ft 283 kts 337°
2026-05-06 16:15 41.10505 2.73619 9305 ft 283 kts 336°
2026-05-06 16:16 41.12358 2.72709 9176 ft 285 kts 336°
2026-05-06 16:16 41.14212 2.71800 9044 ft 284 kts 337°
2026-05-06 16:16 41.16060 2.70895 8912 ft 283 kts 337°
2026-05-06 16:16 41.17903 2.69993 8779 ft 282 kts 337°
2026-05-06 16:17 41.19742 2.69093 8652 ft 281 kts 337°
2026-05-06 16:17 41.21576 2.68197 8514 ft 281 kts 336°
2026-05-06 16:17 41.22764 2.67463 8434 ft 277 kts 325°
2026-05-06 16:17 41.24182 2.65783 8304 ft 273 kts 306°
2026-05-06 16:18 41.25059 2.63613 8181 ft 270 kts 287°
2026-05-06 16:18 41.25343 2.61165 8054 ft 269 kts 269°
2026-05-06 16:18 41.25268 2.58678 7928 ft 269 kts 268°
2026-05-06 16:18 41.25190 2.56193 7799 ft 269 kts 268°
2026-05-06 16:19 41.25111 2.53710 7593 ft 270 kts 268°
2026-05-06 16:19 41.25034 2.51222 7135 ft 267 kts 268°
2026-05-06 16:19 41.24957 2.48779 6691 ft 261 kts 268°
2026-05-06 16:19 41.24883 2.46424 6255 ft 250 kts 269°
2026-05-06 16:20 41.25057 2.44195 5791 ft 238 kts 289°
2026-05-06 16:20 41.25853 2.42327 5335 ft 230 kts 311°
2026-05-06 16:20 41.27123 2.41031 4902 ft 234 kts 328°
2026-05-06 16:20 41.28510 2.39963 4603 ft 223 kts 328°
2026-05-06 16:21 41.29795 2.38969 4467 ft 205 kts 328°
2026-05-06 16:21 41.30985 2.38047 4341 ft 194 kts 328°
2026-05-06 16:21 41.32134 2.37155 4209 ft 190 kts 328°
2026-05-06 16:21 41.33240 2.36300 4128 ft 178 kts 327°
2026-05-06 16:22 41.34279 2.35497 3991 ft 168 kts 327°
2026-05-06 16:22 41.35261 2.34738 3858 ft 165 kts 328°
2026-05-06 16:22 41.36251 2.33971 3735 ft 164 kts 327°
2026-05-06 16:22 41.37136 2.33048 3561 ft 161 kts 304°
2026-05-06 16:23 41.37537 2.31712 3389 ft 156 kts 274°
2026-05-06 16:23 41.37364 2.30304 3231 ft 156 kts 247°
2026-05-06 16:23 41.36915 2.28987 3036 ft 155 kts 246°
2026-05-06 16:23 41.36473 2.27691 2837 ft 153 kts 244°
2026-05-06 16:24 41.36035 2.26404 2630 ft 154 kts 244°
2026-05-06 16:24 41.35591 2.25099 2433 ft 155 kts 244°
2026-05-06 16:24 41.35149 2.23798 2231 ft 154 kts 244°
2026-05-06 16:24 41.34705 2.22495 2016 ft 154 kts 242°
2026-05-06 16:25 41.34265 2.21202 1814 ft 154 kts 242°
2026-05-06 16:25 41.33827 2.19915 1598 ft 149 kts 241°
2026-05-06 16:25 41.33413 2.18696 1400 ft 143 kts 241°
2026-05-06 16:25 41.33006 2.17503 1220 ft 140 kts 241°
2026-05-06 16:26 41.32603 2.16322 1038 ft 140 kts 243°
2026-05-06 16:26 41.32211 2.15162 838 ft 137 kts 242°
2026-05-06 16:26 41.31817 2.14004 651 ft 138 kts 240°
2026-05-06 16:26 41.31421 2.12845 474 ft 138 kts 242°
2026-05-06 16:27 41.31025 2.11679 270 ft 139 kts 244°
2026-05-06 16:27 41.30629 2.10520 84 ft 136 kts 241°
2026-05-06 16:27 41.30253 2.09433 20 ft 114 kts 243°
2026-05-06 16:27 41.29984 2.08686 23 ft 65 kts 246°
2026-05-06 16:28 41.29870 2.08369 26 ft 15 kts 223°
2026-05-06 16:28 41.29786 2.08252 20 ft 19 kts 219°
2026-05-06 16:28 41.29711 2.08200 18 ft 14 kts 201°
2026-05-06 16:28 41.29624 2.08157 17 ft 12 kts 235°
2026-05-06 16:29 41.29584 2.08047 18 ft 15 kts 244°
2026-05-06 16:29 41.29553 2.07957 17 ft 10 kts 248°
2026-05-06 16:29 41.29523 2.07860 17 ft 13 kts 248°
2026-05-06 16:29 41.29491 2.07758 19 ft 13 kts 246°
2026-05-06 16:30 41.29486 2.07742 18 ft 1 kts 246°
2026-05-06 16:30 41.29479 2.07721 17 ft 5 kts 246°
2026-05-06 16:30 41.29462 2.07677 17 ft 3 kts 243°
2026-05-06 16:30 41.29445 2.07631 17 ft 10 kts 243°
2026-05-06 16:31 41.29417 2.07554 17 ft 8 kts 244°
2026-05-06 16:31 41.29364 2.07539 16 ft 9 kts 164°
2026-05-06 16:31 41.29301 2.07579 18 ft 10 kts 154°
2026-05-06 16:31 41.29236 2.07616 18 ft 10 kts 156°
2026-05-06 16:32 41.29184 2.07648 19 ft 5 kts 155°
2026-05-06 16:32 41.29158 2.07683 19 ft 6 kts 101°
2026-05-06 16:32 41.29167 2.07736 21 ft 3 kts 69°
2026-05-06 16:32 41.29161 2.07748 19 ft 2 kts 127°
2026-05-06 16:33 41.29137 2.07772 19 ft 6 kts 156°
2026-05-06 16:33 41.29109 2.07789 19 ft 1 kts 156°
2026-05-06 16:33 41.29098 2.07795 19 ft 0 kts 155°
2026-05-06 16:34 41.29097 2.07796 19 ft 0 kts 155°